Weather in Gerzel-Aul

Russia / Chechen Republic     43°14′50″N   46°23′59″E
temp.,
°C
wind,
m/s
gust,
m/s
humid.,
%
clouds,
%
prec.,
mm/h
press.,
hPa
HPBL,
m
9 may, sun
sun900:00+12ese11912 0.2 101111
03:00+12e1192100 0.2 100913
06:00+14nnw0184100 0.0 100853
09:00+18nnw2276100 0.0 1008394
12:00+22nw33631 0.0 1007955
15:00+23wnw5657100 0.3 10061479
18:00+14w131689100 0.6 1012926
21:00+8w111689100 3.6 10191032
10 may, mon
mon1000:00+7w111690100 0.4 10201119
03:00+7wsw111682100 0.7 10211054
06:00+8wsw81376100 0.1 10211229
09:00+10w8116352 0.4 10211543
12:00+14w81047100 0.1 10202391
15:00+15wnw564483 0.1 10192116
18:00+12ssw466599 0.1 1020210
21:00+9ssw456973 0.1 102188
11 may, tue
tue1100:00+7sw227169 0.0 102024
03:00+7sse117142 0.0 102010
06:00+8ese23734 0.0 1020113
09:00+14e895741 0.0 10171468
12:00+17e984510 0.0 10151541
15:00+17e910527 0.0 10151115
18:00+13e710664 0.0 1016489
21:00+9ese36812 0.0 1017110
12 may, wed
wed1200:00+8se11870 0.0 101716
03:00+7s11890 0.0 101710
06:00+9wsw11820 0.0 101876
09:00+15ene336711 0.0 1018822
12:00+19ene44536 0.0 10171237
15:00+19ene54531 0.0 10171126
18:00+16e46684 0.0 1017254
21:00+11se22770 0.0 101826
13 may, thu
thu1300:00+11sse11812 0.0 101710
03:00+10ese11855 0.0 101612
06:00+12ese11804 0.0 101767
09:00+18ene33650 0.0 1016541
12:00+22ene55560 0.0 1015886
15:00+22ene66580 0.0 1014736
18:00+17e46754 0.0 1015267
21:00+13se118945 0.0 101613